Location: Hawks Ness
(60.2333°N, 1.1667°W)
Time: 01:43:48
(UTC+00:00)

Cosmos 1975 Rocket - Pass Details

Date: 22 October 2019
Orbit: 602 x 635 km, 82.5° (Epoch: 17 November)

Event Time Altitude Azimuth Distance (km) Brightness Sun altitude
Exits shadow 03:40:37 41° 344° (NNW) 921 3.9 -25.1°
Drops below altitude 10° 03:43:43 10° 9° (N) 2,004 6.0 -24.7°
Sets 03:46:00 0° 14° (NNE) 2,909 7.0 -24.5°
